Alexandroupoli, Greece

12:52 PM EEST on June 26, 2017 (GMT +0300)
Dimokritos

Weather History for LGAL - November, 2012

Change the Weather History Date:

Tuesday, November 27, 2012

  Actual Average Record
Temperature  
Mean Temperature 44 °F -  
Max Temperature 57 °F 52 °F 68 °F (2010)
Min Temperature 32 °F 39 °F 24 °F (1999)
Degree Days  
Heating Degree Days 20    
Moisture  
Dew Point 41 °F    
Average Humidity 78    
Maximum Humidity 88    
Minimum Humidity 60    
Precipitation  
Precipitation 0.00 in 0.11 in - ()
Sea Level Pressure  
Sea Level Pressure 30.11 in    
Wind  
Wind Speed 2 mph ()    
Max Wind Speed 8 mph    
Max Gust Speed -    
Visibility 6.2 miles    
Events      
Averages and records for this station are not official NWS values.
T = Trace of Precipitation, MM = Missing Value Source: Averaged Metar Reports

Daily Weather History Graph

Daily Weather History Graph

Search for Another Location

Airport or City:

Trip Planner

Search our weather history database for the weather conditions in past years. The results will help you decide how hot, cold, wet, or windy it might be!

Date:

Astronomy

Nov. 27, 2012 Rise Set
Actual Time 7:17 AM EET 4:50 PM EET
Civil Twilight 6:47 AM EET 5:20 PM EET
Nautical Twilight 6:13 AM EET 5:54 PM EET
Astronomical Twilight 5:40 AM EET 6:27 PM EET
Moon 4:09 PM EET (11/27) 6:04 AM EET (11/27)
Length of Visible Light 10h 33m
Length of Day
9h 33m
Waxing Gibbous, 99% of the Moon is Illuminated
Nov 27
Waxing Gibbous
Nov 28
Full
Dec 6
Last Quarter
Dec 13
New
Dec 20
First Quarter

Hourly Weather History & Observations

Time (EET) Temp. Windchill Dew Point Humidity Pressure Visibility Wind Dir Wind Speed Gust Speed Precip Events Conditions
12:20 AM 41.0 °F - 33.8 °F 76% 30.18 in - Calm Calm - N/A   Clear
12:50 AM 41.0 °F - 32.0 °F 70% 30.18 in - Calm Calm - N/A   Clear
1:50 AM 41.0 °F - 32.0 °F 70% 30.18 in - Calm Calm - N/A   Clear
2:00 AM 40 °F - 33 °F 67% 30.20 in 6 mi Calm Calm - -  
2:20 AM 41.0 °F - 32.0 °F 70% 30.18 in - Calm Calm - N/A   Clear
2:50 AM 39.2 °F - 33.8 °F 81% 30.18 in - Calm Calm - N/A   Clear
3:50 AM 39.2 °F - 32.0 °F 75% 30.21 in - Calm Calm - N/A   Clear
4:50 AM 37.4 °F - 32.0 °F 81% 30.15 in - Calm Calm - N/A   Clear
5:20 AM 37.4 °F - 32.0 °F 81% 30.15 in - Calm Calm - N/A   Clear
5:50 AM 37.4 °F - 32.0 °F 81% 30.15 in - Calm Calm - N/A   Clear
6:20 AM 37.4 °F - 32.0 °F 81% 30.15 in - Calm Calm - N/A   Clear
6:50 AM 37.4 °F - 32.0 °F 81% 30.15 in - Calm Calm - N/A   Clear
7:20 AM 35.6 °F - 32.0 °F 87% 30.15 in - Calm Calm - N/A   Clear
7:50 AM 32.0 °F - 28.4 °F 87% 30.15 in 6.2 mi Calm Calm - N/A   Partly Cloudy
8:00 AM 33 °F - 29 °F 78% 30.16 in 6 mi Calm Calm - -   Scattered Clouds
8:20 AM 33.8 °F - 30.2 °F 87% 30.15 in 6.2 mi Calm Calm - N/A   Partly Cloudy
8:50 AM 37.4 °F - 33.8 °F 87% 30.15 in 6.2 mi Calm Calm - N/A   Partly Cloudy
9:20 AM 41.0 °F - 35.6 °F 81% 30.15 in 6.2 mi Calm Calm - N/A   Scattered Clouds
9:50 AM 42.8 °F - 37.4 °F 81% 30.15 in 6.2 mi Calm Calm - N/A   Mostly Cloudy
10:20 AM 44.6 °F - 41.0 °F 87% 30.15 in 6.2 mi Calm Calm - N/A   Scattered Clouds
10:50 AM 46.4 °F 44.3 °F 41.0 °F 81% 30.12 in 6.2 mi East 4.6 mph - N/A   Partly Cloudy
11:20 AM 48.2 °F - 41.0 °F 76% 30.12 in 6.2 mi East 4.6 mph - N/A   Partly Cloudy
11:50 AM 53.6 °F - 42.8 °F 67% 30.12 in 6.2 mi East 4.6 mph - N/A   Partly Cloudy
12:20 PM 53.6 °F - 42.8 °F 67% 30.12 in 6.2 mi ESE 3.5 mph - N/A   Partly Cloudy
12:50 PM 53.6 °F - 42.8 °F 67% 30.12 in 6.2 mi South 4.6 mph - N/A   Partly Cloudy
1:20 PM 55.4 °F - 44.6 °F 67% 30.12 in 6.2 mi South 5.8 mph - N/A   Partly Cloudy
1:50 PM 55.4 °F - 44.6 °F 67% 30.09 in 6.2 mi SSW 8.1 mph - N/A   Partly Cloudy
2:00 PM 55 °F - 45 °F 60% 30.10 in 6 mi SSW 8.1 mph - -   Scattered Clouds
2:20 PM 55.4 °F - 44.6 °F 67% 30.09 in 6.2 mi SSW 8.1 mph - N/A   Partly Cloudy
2:50 PM 57.2 °F - 44.6 °F 63% 30.06 in 6.2 mi SW 6.9 mph - N/A   Partly Cloudy
3:20 PM 57.2 °F - 44.6 °F 63% 30.06 in 6.2 mi SW 8.1 mph - N/A   Scattered Clouds
3:50 PM 57.2 °F - 46.4 °F 67% 30.06 in 6.2 mi WSW 6.9 mph - N/A   Mostly Cloudy
4:20 PM 57.2 °F - 46.4 °F 67% 30.06 in 6.2 mi SSW 6.9 mph - N/A   Mostly Cloudy
4:50 PM 55.4 °F - 48.2 °F 77% 30.06 in 6.2 mi SSW 6.9 mph - N/A   Mostly Cloudy
5:20 PM 55.4 °F - 48.2 °F 77% 30.06 in 6.2 mi SW 8.1 mph - N/A   Scattered Clouds
5:50 PM 53.6 °F - 48.2 °F 82% 30.06 in 6.2 mi Variable 3.5 mph - N/A   Scattered Clouds
6:20 PM 53.6 °F - 48.2 °F 82% 30.06 in 6.2 mi Variable 2.3 mph - N/A   Scattered Clouds
6:50 PM 51.8 °F - 46.4 °F 82% 30.06 in 6.2 mi South 5.8 mph - N/A   Scattered Clouds
7:20 PM 51.8 °F - 46.4 °F 82% 30.06 in 6.2 mi SSW 4.6 mph - N/A   Scattered Clouds
7:50 PM 53.6 °F - 48.2 °F 82% 30.09 in 6.2 mi SSW 5.8 mph - N/A   Mostly Cloudy
8:00 PM 54 °F - 48 °F 73% 30.09 in 6 mi SSW 5.8 mph - -   Mostly Cloudy
8:20 PM 53.6 °F - 48.2 °F 82% 30.09 in 6.2 mi South 6.9 mph - N/A   Mostly Cloudy
8:50 PM 51.8 °F - 48.2 °F 88% 30.09 in 6.2 mi South 6.9 mph - N/A   Mostly Cloudy
9:20 PM 51.8 °F - 48.2 °F 88% 30.09 in 6.2 mi SSW 5.8 mph - N/A   Mostly Cloudy
9:50 PM 51.8 °F - 48.2 °F 88% 30.06 in 6.2 mi Calm Calm - N/A   Mostly Cloudy
10:20 PM 51.8 °F - 48.2 °F 88% 30.06 in 6.2 mi Calm Calm - N/A   Mostly Cloudy
10:50 PM 51.8 °F - 48.2 °F 88% 30.06 in 6.2 mi Calm Calm - N/A   Mostly Cloudy
11:20 PM 51.8 °F - 48.2 °F 88% 30.06 in 6.2 mi Calm Calm - N/A   Mostly Cloudy
11:50 PM 51.8 °F - 48.2 °F 88% 30.06 in 6.2 mi SSW 5.8 mph - N/A   Scattered Clouds